星链-1278 (STARLINK-1278 )

导读

STARLINK-1278是美国太空探索技术公司Starlink卫星互联网星座的一颗卫星,于2020年3月18日发射升空,属于该星座早期部署批次。它旨在为全球提供低延迟、高速率的卫星互联网服务,运行在近地轨道,是SpaceX构建全球卫星网络进程中的组成部分,推进了星座全球覆盖的建设步伐。

基本信息
目录编号:
45408
目录名称:
STARLINK-1278
国际标识:
2020-019BA
轨道中心:
EARTH
卫星名称:
星链-1278
卫星全名:
星链-1278 (STARLINK-1278 )
卫星状态:
在轨 (已飞行2368 天)
发射日期:
2020-03-18 UTC
国别 :
美国 (US)
星等 :
--
轨道信息
数据来源 国际轨道数据
星历时间: 2026-09-11T02:00:02+0800
10小时前
查看轨道信息
半长轴: 6674.483km
偏心率: 0.0007653
轨道倾角: 53.030°
近地点辐角 13.459°
升交点赤经 292.062°
平近点角 319.580°
近地点: 291.238km
远地点: 301.454km
周期: 90.445分钟
每日圈数: 15.92122
详细信息
固有亮度:
5
最大亮度:
2.5
卫星平台:
Starlink V1.0
覆盖范围:
全球
运营商:
太空探索技术公司
运营商所在国:
美国
制造商(研发单位):
太空探索技术公司
制造商所在国:
美国
使用方式:
暂无
卫星简介
星链(Starlink)计划是由太空探索技术公司(SpaceX)提出的一个巨型低轨卫星互联网星座项目,计划在2019年至2024年间在太空搭建由约1.2万颗卫星组成的“星链”网络,其中1584颗将部署在地球上空550千米处的近地轨道,并从2020年开始工作。该卫星仍在工作。
2D轨道图
3D轨道图
轨道高度分析图
轨道倾角分析图
轨道综合分析图
查看轨道综合分析图
与全量物体交会距离演化趋势
与全量物体交会风险概率演化趋势